Location: Warszawa
(52.2500°N, 21.0000°E)
Time: 23:19:32
(UTC+02:00)

AO-27 - Pass Details

Date: 19 April 2024
Orbit: 783 x 797 km, 98.8° (Epoch: 26 May)

Event Time Altitude Azimuth Distance (km) Brightness Sun altitude
Exits shadow 20:55:53 - 170° (S) 2,896 10.2 -10.8°
Reaches altitude 10° 20:57:14 10° 171° (S) 2,362 9.7 -11.0°
Maximum altitude 21:02:27 72° 256° (WSW) 842 7.9 -11.6°
Drops below altitude 10° 21:07:43 10° 341° (NNW) 2,381 11.1 -12.3°
Sets 21:10:04 0° 344° (NNW) 3,316 11.9 -12.6°
